Home   Weather   Tananger   Past weeks

Flag for Norway Past Weather in Tananger, Norway — Yesterday and Last 2 Weeks

Now
37 °F

Partly sunny.


Feels Like: 35 °F
Forecast: 40 / 47 °F
Wind: 3 mph from North

Location: Stavanger / Sola

Current Time: Apr 28, 2017 at 6:35:59 am

Latest Report: Apr 28, 2017 at 5:50 am


Visibility: N/A

Pressure: 29.83 "Hg

Humidity: 81%

Dew Point: 32 °F

Location of TanangerLocation

Past Weather in Tananger — Graph

°F

Tananger Temperature Yesterday

Maximum temperature yesterday: 45 °F (at 12:20 pm)
Minimum temperature yesterday: 36 °F (at 3:50 am)
Average temperature yesterday: 41 °F

High & Low Weather Summary for the Past Weeks

 TemperatureHumidityPressure
High46 °F (Apr 20, 11:50 am)100% (Apr 16, 9:20 am)30.60 "Hg (Apr 16, 9:20 am)
Low28 °F (Apr 17, 6:20 am)37% (Apr 25, 6:20 pm)29.50 "Hg (Apr 24, 3:50 am)
Average40 °F76%29.94 "Hg
* Reported Apr 13 5:50 am — Apr 28 5:20 am, Tananger, Weather by CustomWeather, © 2017

Note: Actual official high and low records may vary slightly from our data, if they occured in-between our weather recording intervals... More about our weather records

Advertising

Tananger Weather History for the Previous 24 Hours

Scroll right to see more
 ConditionsComfort  
Time TempWeatherWind HumidityBarometerVisibility
5:20 am
Fri, Apr 28
37 °FPassing clouds.6 mph81%29.83 "HgN/A
4:20 am37 °FPartly cloudy.5 mph81%29.83 "HgN/A
3:20 am37 °FPartly cloudy.8 mph87%29.80 "HgN/A
2:20 am37 °FPassing clouds.5 mph93%29.80 "HgN/A
1:50 am37 °FPartly cloudy.6 mph93%29.80 "HgN/A
1:20 am39 °FPassing clouds.No wind87%29.80 "HgN/A
12:50 am37 °FPassing clouds.2 mph87%29.80 "HgN/A
12:20 am39 °FPassing clouds.No wind87%29.80 "HgN/A
11:50 pm
Thu, Apr 27
39 °FPassing clouds.2 mph81%29.80 "HgN/A
11:20 pm41 °FPassing clouds.6 mph81%29.80 "HgN/A
10:50 pm41 °FPassing clouds.2 mph81%29.80 "HgN/A
10:20 pm41 °FPassing clouds.5 mph81%29.80 "HgN/A
9:50 pm41 °FScattered showers. Passing clouds.8 mph81%29.80 "HgN/A
9:20 pm41 °FPassing clouds.7 mph87%29.80 "HgN/A
8:50 pm41 °FScattered clouds.9 mph81%29.77 "HgN/A
8:20 pm43 °FScattered clouds.7 mph76%29.77 "HgN/A
7:50 pm43 °FScattered clouds.12 mph76%29.77 "HgN/A
7:20 pm43 °FPartly sunny.12 mph81%29.77 "HgN/A
6:50 pm43 °FBroken clouds.10 mph81%29.77 "HgN/A
6:20 pm43 °FBroken clouds.12 mph81%29.77 "HgN/A
5:50 pm45 °FScattered showers. Broken clouds.12 mph71%29.77 "HgN/A
5:20 pm43 °FScattered showers. Partly sunny.10 mph76%29.77 "HgN/A
4:50 pm43 °FScattered showers. Partly sunny.9 mph81%29.77 "HgN/A
4:20 pm43 °FScattered showers. Partly sunny.10 mph76%29.77 "HgN/A
3:50 pm43 °FScattered showers. Broken clouds.8 mph81%29.74 "HgN/A
3:20 pm43 °FDrizzle. Partly sunny.8 mph87%29.74 "HgN/A
2:50 pm45 °FPartly sunny.3 mph71%29.74 "HgN/A
2:20 pm45 °FPartly sunny.2 mph66%29.74 "HgN/A
1:50 pm45 °FBroken clouds.6 mph71%29.74 "HgN/A
1:20 pm45 °FLight rain. Broken clouds.7 mph76%29.71 "HgN/A
12:50 pm45 °FBroken clouds.9 mph71%29.71 "HgN/A
12:20 pm45 °FBroken clouds.9 mph71%29.71 "HgN/A
11:50 am43 °FBroken clouds.12 mph76%29.71 "HgN/A
11:20 am43 °FBroken clouds.10 mph76%29.71 "HgN/A
10:50 am43 °FBroken clouds.12 mph76%29.71 "HgN/A
10:20 am41 °FPartly sunny.10 mph81%29.71 "HgN/A
9:50 am41 °FBroken clouds.13 mph81%29.68 "HgN/A
9:20 am39 °FBroken clouds.12 mph87%29.68 "HgN/A
8:50 am37 °FPartly sunny.10 mph93%29.68 "HgN/A
8:20 am37 °FLight rain. Partly sunny.10 mph93%29.68 "HgN/A
7:50 am37 °FLight rain. Partly sunny.12 mph87%29.68 "HgN/A
7:20 am36 °FLight rain. Partly sunny.10 mph93%29.71 "HgN/A
6:50 am36 °FDrizzle. Partly sunny.10 mph93%29.71 "HgN/A
6:20 am37 °FLight rain. More clouds than sun.9 mph87%29.71 "HgN/A
Weather by CustomWeather, © 2017

See weather overviewHow to use our weather pages